Home   Weather   Manizales   Past weeks

Flag for Colombia Past Weather in Manizales, Colombia — Yesterday and Last 2 Weeks

Now
57 °F

Drizzle. Mostly cloudy.


Feels Like: 57 °F
Forecast: 56 / 70 °F
Wind: 3 mph from Southwest

Location: Rionegro / J. M. Cordova

Current Time: Apr 26, 2017 at 5:12:18 am

Latest Report: Apr 26, 2017 at 4:00 am


Visibility: 2 mi

Pressure: 30.26 "Hg (23.46 "Hg at 2139m altitude)

Humidity: 94%

Dew Point: 55 °F

Location of ManizalesLocation

Past Weather in Manizales — Graph

°F

Manizales Temperature Yesterday

Maximum temperature yesterday: 73 °F (at 2:00 pm)
Minimum temperature yesterday: 59 °F (at 2:00 am)
Average temperature yesterday: 64 °F

High & Low Weather Summary for the Past Weeks

 TemperatureHumidityPressure
High73 °F (Apr 23, 1:00 pm)100% (Apr 19, 3:00 am)30.37 "Hg (Apr 19, 3:00 am)
Low52 °F (Apr 22, 5:10 am)50% (Apr 25, 3:00 pm)30.16 "Hg (Apr 23, 4:00 pm)
Average63 °F83%30.28 "Hg
* Reported Apr 17 4:00 pm — Apr 26 4:00 am, Manizales, Weather by CustomWeather, © 2017

Note: Actual official high and low records may vary slightly from our data, if they occured in-between our weather recording intervals... More about our weather records

Advertising

Manizales Weather History for the Previous 24 Hours

Scroll right to see more
 ConditionsComfort  
Time TempWeatherWind HumidityBarometerVisibility
4:00 am
Wed, Apr 26
57 °FDrizzle. Mostly cloudy.3 mph94%30.26 "Hg2 mi
3:00 am59 °FScattered showers. Mostly cloudy.No wind100%30.25 "Hg5 mi
2:00 am59 °FDrizzle. Mostly cloudy.6 mph100%30.26 "Hg3 mi
1:00 am59 °FDrizzle. Mostly cloudy.2 mph100%30.27 "Hg3 mi
12:00 am61 °FPassing clouds.3 mph94%30.31 "Hg5 mi
11:00 pm
Tue, Apr 25
61 °FPassing clouds.5 mph94%30.33 "Hg6 mi
10:00 pm63 °FThunderstorms. Partly cloudy.6 mph94%30.30 "HgN/A
9:00 pm63 °FThunderstorms. Partly cloudy.5 mph94%30.27 "HgN/A
8:00 pm64 °FThunderstorms. Passing clouds.3 mph88%30.25 "HgN/A
7:00 pm66 °FPassing clouds.5 mph83%30.23 "HgN/A
6:00 pm68 °FScattered showers. Broken clouds.5 mph73%30.19 "HgN/A
5:00 pm70 °FBroken clouds.7 mph64%30.17 "HgN/A
4:00 pm72 °FBroken clouds.9 mph57%30.16 "HgN/A
3:00 pm73 °FScattered clouds.7 mph50%30.19 "HgN/A
2:00 pm73 °FScattered clouds.9 mph53%30.23 "HgN/A
1:00 pm72 °FScattered clouds.7 mph57%30.27 "HgN/A
12:00 pm70 °FScattered clouds.No wind60%30.32 "HgN/A
11:00 am70 °FScattered clouds.9 mph60%30.32 "HgN/A
10:00 am66 °FScattered clouds.7 mph73%30.33 "HgN/A
9:00 am63 °FBroken clouds.5 mph83%30.33 "HgN/A
8:00 am61 °FBroken clouds.5 mph88%30.32 "Hg4 mi
7:00 am59 °FBroken clouds.3 mph94%30.28 "Hg2 mi
6:00 am59 °FBroken clouds.2 mph100%30.27 "Hg2 mi
5:30 am59 °FFog.No wind100%30.26 "Hg4 mi
5:00 am61 °FFog.2 mph94%30.25 "Hg4 mi
Weather by CustomWeather, © 2017

See weather overviewHow to use our weather pages